www.pogodaiklimat.ru

Погода и климат >> Архив погоды >> Доминиканская Республика >> Santo Domingo


АРХИВ ПОГОДЫ в Santo Domingo

Время (UTC), дата Ветер
(напр.,м/с)
 
Видим.   Явления Облачность Т
(С)
Тd
(С)
f
(%)
Тe
(С)
Тes
(С)
Комфортность P
(гПа)
Po
(гПа)
Тmin
(С)
Tmax
(С)
R
(мм)
R24
(мм)
S
(см)
12 11.08 С 2 14 км пыль {туман} 4/1 540 м
[Sc Ci]
+26.0 +23.7 87 +35 +38 очень
душно
1017.6 1018.0 +25.5 +32.0
15 11.08 В 2 14 км пыль {туман} 6/6 600 м
[Cu med, cong Ci]
+24.6 +21 +28 комфорт 1018.6 1019.0
18 11.08 ЮВ 2 14 км пыль {туман} 6/4 840 м
[Cb cap Ci]
+32.0 +25.7 69 +47 +58 опасность
перегрева
1018.2 1018.0 +25.5 +32.2
21 11.08 СВ 2 10 км гроза, ливневой дождь {туман} 9/6 420 м
[Cb cap As op Cs]
+25.6 +24.2 92 +35 +37 очень
душно
1016.3 1016.0 5
00 12.08 штиль 0 10 км пыль {гроза, дождь} 4/3 480 м
[Cu med, cong Ac cuf Ci fib]
+26.7 +23.8 84 +37 +37 очень
душно
1017.9 1018.0 +25.3 +32.7 1
03 12.08 штиль 0 10 км пыль {туман} 3/3 480 м
[Cu med, cong Ci fib]
+26.4 +24.2 88 +37 +37 очень
душно
1019.6 1020.0
06 12.08 штиль 0 12 км пыль {туман} 4/3 420 м
[Cu med, cong Ci fib]
+25.8 +24.1 90 +36 +36 очень
душно
1018.3 1018.0 +25.3 +32.7
09 12.08 штиль 0 14 км зарница {туман} 3/3 360 м
[Cb cap Ac cuf Ci ing]
+25.4 +24.0 92 +35 +35 очень
душно
1018.1 1018.0
15 12.08 СВ 2 14 км слабый дождь {туман} 9/8 420 м
[Cb cap As op Ci fib]
+29.0 +23.5 72 +39 +42 очень
душно
1019.1 1019.0 0.5
18 12.08 штиль 0 8000 м гроза, ливневой дождь 10/9 360 м
[Cb cap As op]
+23.0 +23.0 100 +32 +32 очень
душно
1020.0 1020.0 +23.0 +31.2 18
21 12.08 С 2 14 км пыль {гроза, дождь} 5/3 360 м
[Cb cap As op]
+24.4 +23.6 95 +33 +36 очень
душно
1018.2 1018.0 11
00 13.08 С 2 14 км пыль {гроза, дождь} 5/3 360 м
[Cb cap As op]
+24.4 +23.6 95 +33 +33 очень
душно
1018.2 1018.0 11
03 13.08 штиль 0 16 км 5/3 480 м
[Cu med, cong Cs]
+22.5 +22.4 99 +30 +30 очень
душно
1019.2 1019.0
06 13.08 С 2 14 км пыль {туман} 3/3 540 м
[Cu med, cong]
+24.8 +23.4 92 +33 +33 очень
душно
1017.7 1018.0 +23.0 +31.2
09 13.08 С 1 14 км пыль {туман} 4/1 540 м
[Cu med, cong Ac lent]
+24.2 +23.1 94 +32 +32 очень
душно
1017.2 1017.0
12 13.08 С 2 14 км пыль {туман} 4/1 540 м
[Cu med, cong Ac trans]
+27.0 +24.3 85 +38 +40 очень
душно
1017.9 1018.0 +24.6 +31.2
15 13.08 СВ 2 14 км пыль {туман} 4/1 600 м
[Cu med, cong Ac trans]
+31.2 +24.6 68 +44 +57 опасность
перегрева
1018.9 1019.0
18 13.08 СВ 3 10 км слабый дождь {туман} 9/8 500 м
[Cb cap As op]
+31.4 +24.2 66 +44 +46 опасность
перегрева
1015.6 1016.0 +24.6 +33.0 0.0
21 13.08 С 2 8000 м пыль {дождь, туман} 8/8 480 м
[Cb cap As op Cs]
+29.0 +25.6 82 +43 +44 опасность
перегрева
1014.6 1015.0 11
00 14.08 штиль 0 12 км пыль {дождь, туман} 6/5 480 м
[Cb cap Ci fib]
+25.4 +23.6 90 +35 +35 очень
душно
1015.6 1016.0 +24.6 +33.0 0.7
03 14.08 С 2 12 км пыль {туман} 8/5 300 м
[Cb cap Ac As]
+25.4 +24.3 94 1016.7 1016.3
06 14.08 С 2 12 км пыль {туман} 5/3 480 м
[Cu med, cong Ac As]
+24.8 +23.7 94 +34 +34 очень
душно
1015.6 1016.0 +24.6 +33.0
09 14.08 штиль 0 14 км пыль {туман} 3/3 480 м
[Cu med, cong]
+24.2 +23.4 95 +32 +32 очень
душно
1014.7 1015.0
12 14.08 С 2 14 км пыль {туман} 5/3 300 м
[Cu med, cong Ac trans]
+27.0 +22.9 78 +36 +38 очень
душно
1016.2 1016.0 +24.0 +33.0
15 14.08 С 2 14 км пыль {туман} 6/4 540 м
[Cu med, cong Ci]
+30.4 +24.9 72 +43 +54 опасность
перегрева
1016.8 1017.0
18 14.08 СВ 2 14 км слабый дождь {гроза, туман} 9/8 420 м
[Cb cap As op Cs]
+26.4 +24.8 91 +38 +40 очень
душно
1015.8 1016.0 +24.0 +31.4 1
21 14.08 С 2 14 км пыль {гроза, туман} 9/8 420 м
[Cb cap Ac As Cs]
+27.0 +24.6 87 +38 +39 очень
душно
1014.8 1015.0 0.0
00 15.08 С 2 8000 м слабый дождь {гроза, туман} 10/9 360 м
[Cb cap As op]
+24.8 +23.7 94 +34 +34 очень
душно
1015.6 1016.0 +24.0 +31.4 1
03 15.08 С 2 14 км пыль {гроза, туман} 3/3 420 м
[Cu med, cong Ac cuf Ci fib]
+23.8 +22.9 95 +32 +32 очень
душно
1017.0 1017.0 0.2
06 15.08 штиль 0 14 км пыль {туман} 3/3 360 м
[Cu med, cong]
+23.8 +23.1 96 +32 +32 очень
душно
1016.3 1016.0 +23.6 +31.4
09 15.08 штиль 0 14 км пыль {туман} 1/1 360 м
[Cu med, cong]
+23.6 +22.7 95 +31 +31 очень
душно
1015.6 1016.0
12 15.08 С 2 14 км пыль {туман} 3/3 480 м
[Cu med, cong]
+25.0 +23.6 92 +34 +36 очень
душно
1016.6 1017.0 +23.6 +31.4
15 15.08 В 2 14 км пыль {туман} 4/3 600 м
[Cu med, cong Ci fib]
+30.0 +24.7 73 +43 +55 опасность
перегрева
1017.6 1018.0
18 15.08 Ю 2 14 км пыль {туман} 4/4 600 м
[Cb cap Ci fib]
+31.0 +25.6 73 +46 +57 опасность
перегрева
1016.6 1017.0 +23.6 +31.5
21 15.08 ЮВ 2 12 км пыль {туман} 8/5 540 м
[Cb cap As op Cs]
+29.2 +25.2 79 +42 +44 опасность
перегрева
1016.1 1016.0
00 16.08 В 2 12 км пыль {туман} 6/4 540 м
[Cb cap Cs]
+27.2 +24.2 84 +38 +38 очень
душно
1017.2 1017.0 +23.6 +31.5
03 16.08 СВ 2 12 км пыль {туман} 4/3 540 м
[Cu med, cong Ci fib]
+26.0 +24.1 89 +36 +36 очень
душно
1019.0 1019.0
06 16.08 СВ 2 12 км пыль {туман} 4/3 480 м
[Cu med, cong Ci fib]
+25.6 +23.9 90 +35 +35 очень
душно
1018.0 1018.0 +23.6 +31.5
09 16.08 штиль 0 12 км пыль {туман} 3/3 480 м
[Cu med, cong]
+25.4 +24.0 92 +35 +35 очень
душно
1017.6 1018.0
12 16.08 С 2 14 км пыль {туман} 4/3 540 м
[Cu med, cong Ci fib]
+27.5 +24.1 82 +38 +41 очень
душно
1018.8 1019.0 +25.5 +31.5
15 16.08 СВ 2 14 км пыль {туман} 6/4 600 м
[Cu med, cong Ci fib]
+30.0 +24.7 73 +43 +53 опасность
перегрева
1019.2 1019.0
18 16.08 штиль 0 8000 м гроза, ливневой дождь {туман} 9/8 500 м
[Cb cap As op Cs]
+29.6 +25.7 80 +44 +48 опасность
перегрева
1017.6 1018.0 +25.5 +33.0 2
21 16.08 СВ 2 12 км гроза без осадков {дождь} 9/5 500 м
[Cb cap As op Cs]
+27.8 +26.5 93 +43 +44 опасность
перегрева
1016.6 1017.0 5
00 17.08 СВ 2 12 км гроза без осадков {дождь} 9/4 480 м
[Cb cap As op Cs]
+26.4 +25.0 92 +38 +38 очень
душно
1018.2 1018.0 +25.5 +33.0
03 17.08 штиль 0 12 км пыль {гроза, туман} 9/5 420 м
[Cb cap Ac As Cs]
+25.6 +24.5 94 +36 +36 очень
душно
1019.2 1019.0 2
06 17.08 С 2 12 км зарница {гроза, туман} 8/6 420 м
[Cb cap Ac As Cs]
+25.5 +24.5 94 +36 +36 очень
душно
1018.6 1019.0 +25.4 +33.0
09 17.08 С 2 12 км зарница {гроза, туман} 6/4 480 м
[Cb cap Ac trans Cs]
+25.0 +24.2 95 +34 +34 очень
душно
1018.4 1018.0
12 17.08 СВ 3 12 км гроза без осадков {туман} 6/4 300 м
[Cu Sc Ac trans Cs]
+27.2 +24.5 85 +38 +40 очень
душно
1019.0 1019.0 +25.4 +33.0
15 17.08 ЮВ 2 12 км пыль {гроза, туман} 8/5 600 м
[Cb cap Ac trans Cs]
+31.0 +25.8 74 +46 +52 опасность
перегрева
1019.6 1020.0
18 17.08 ЮВ 2 14 км пыль {гроза, туман} 5/5 600 м
[Cb cap Cs]
+31.0 +25.1 71 +45 +54 опасность
перегрева
1018.6 1019.0 +25.4 +33.0
21 17.08 С 2 14 км гроза без осадков {туман} 8/6 600 м
[Cb cap Cs]
+30.4 +25.4 75 +45 +46 опасность
перегрева
1017.5 1018.0
00 18.08 С 2 14 км пыль {гроза, дождь} 8/8 540 м
[Cu Sc Ac cuf Ci fib]
+27.4 +23.6 80 +37 +37 очень
душно
1018.6 1019.0 +25.0 +33.0 2
03 18.08 СВ 2 14 км пыль {туман} 1/1 480 м
[Cu med, cong]
+26.6 +24.4 88 +37 +37 очень
душно
1020.3 1020.0

 

Местоположение метеостанции Santo Domingo (Доминиканская Республика): широта 18.43 долгота -69.88 высота над уровнем моря 14 м.

В архиве по умолчанию представлена погода в Santo Domingo за последнюю неделю. Архивные данные за месяц целиком и за предыдущие месяцы, начиная с января 2011 года, Вы можете получить, выбрав интересующий диапазон дат из раскрывающегося списка и нажав кнопку "Ввод!".


*Определитесь, кто Вы:
робот инопланетянин человек

Внимание! Время в таблицах - всемирное. Для получения местного времени необходимо прибавить поправку, которая в Santo Domingo равна -4 ч.

Смотрите также архив погоды в соседних городах и на ближайших метеорологических станциях:

Погода в Las Americas (Доминиканская Республика) (23 км)
Погода в Sabana De La Mar (Доминиканская Республика) (87 км)
Погода в La Romana Int Airport (Доминиканская Республика) (101 км)
Погода в Barahona (Доминиканская Республика) (131 км)
Погода в Santiago (Доминиканская Республика) (143 км)
Погода в Punta Cana (Доминиканская Республика) (161 км)
Погода в Puerto Plata (Доминиканская Республика) (163 км)
Погода в Punta de Maisi (Куба) (492 км)
Погода в Charlotte Amalie St. Thomas (Виргинские Острова) (519 км)
Погода в Santiago de Cuba (Куба) (650 км)

Пояснения к столбцам:

Ветер - указаны скорость ветра в м/с - средняя за 10 мин, порывы в срок и между сроками (в фигурных скобках) и направление, откуда дует ветер: С - северный, СВ - северо-восточный, В - восточный, ЮВ - юго-восточный, Ю - южный, ЮЗ - юго-западный, З - западный, СЗ - северо-западный.
Видимость - горизонтальная дальность видимости в метрах или километрах. При видимости от 1 до 10 км при отсутствии осадков обычно наблюдается дымка, при ухудшении видимости до 1 км и менее - туман. В сухую погоду видимость может ухудшаться дымом, пылью или мглою.
Явления - указаны атмосферные явления, наблюдавшиеся в срок или в последний час перед сроком; фигурными скобками обозначены явления, наблюдавшиеся между сроками (за 1-3 часа до срока); квадратными скобками обозначены град или гололедные отложения с указанием их диаметра в мм.
Облачность - указаны через наклонную черту общая и нижняя облачность в баллах и высота нижней границы облаков в метрах; квадратными скобками обозначены формы облаков: Ci - перистые, Cs - перисто-слоистые, Cc - перисто-кучевые, Ac - высококучевые, As - высокослоистые, Sc - слоисто-кучевые, Ns - слоисто-дождевые, Cu - кучевые, Cb - кучево-дождевые. Подробнее классификацию облаков см. в Атласе облаков (PDF).
T - Температура воздуха - температура, измеренная на высоте 2 м над землей.
Td - Температура точки росы - температура, при понижении до которой содержащийся в воздухе водяной пар достигнет насыщения.
f - Относительная влажность воздуха - влажноcть воздуха, измеренная на высоте 2 м над землей.
Te - Эффективная температура - температура, которую ощущает одетый по сезону человек в тени. Характеристика душности погоды. При расчете учитывается влияние влажности воздуха и скорости ветра на теплоощущения человека.
Tes - Эффективная температура на солнце - температура, которую ощущает человек, с поправкой на солнечный нагрев. Характеристика знойности погоды. Зависит от высоты солнца над горизонтом, облачности и скорости ветра. Ночью, в пасмурную погоду, а также при ветре 12 м/с и более поправка равна нулю.
P - Атмосферное давление - приведенное к уровню моря атмосферное давление.
Po - Атмосферное давление - измеренное на уровне метеостанции атмосферное давление.
Tmin - Минимальная температура - минимум температуры воздуха на высоте 2 м над землей.
Tmax - Максимальная температура - максимум температуры воздуха на высоте 2 м над землей.
R - Количество осадков - Количество выпавших осадков за период времени, мм. При наведении курсора мыши на число - период времени, за который выпало указанное количество осадков.
R24 - Количество осадков - Количество выпавших осадков за 24 часа, мм.
S - Снежный покров - Высота снежного покрова, см. При наведении курсора мыши на число - состояние снежного покрова и степень покрытия местности в баллах.